Location: Zagreb
(45.8000°N, 16.0000°E)
Time: 20:57:29
(UTC+01:00)

Oscar 11 - Pass Details

Date: 06 November 2020
Orbit: 613 x 625 km, 97.6° (Epoch: 01 December)

Event Time Altitude Azimuth Distance (km) Brightness Sun altitude
Rises 18:01:53 0° 190° (S) 2,878 10.7 -15.4°
Reaches altitude 10° 18:04:15 10° 200° (SSW) 1,976 10.0 -15.8°
Maximum altitude 18:08:07 32° 264° (W) 1,060 9.0 -16.5°
Drops below altitude 10° 18:12:00 10° 328° (NNW) 1,985 10.0 -17.2°
Sets 18:14:23 0° 339° (NNW) 2,894 10.7 -17.6°
